TimePDT,TemperatureF,Dew PointF,Humidity,Sea Level PressureIn,VisibilityMPH,Wind Direction,Wind SpeedMPH,Gust SpeedMPH,PrecipitationIn,Events,Conditions,WindDirDegrees,DateUTC
12:58 AM,50.4,50.0,99,29.99,10.0,Variable,6.9,-,N/A,,Clear,0,2013-09-24 07:58:00
1:58 AM,48.0,47.8,99,29.99,10.0,SSE,2.3,-,N/A,,Clear,150,2013-09-24 08:58:00
2:58 AM,48.2,47.8,99,29.99,3.0,ESE,1.2,-,N/A,,Clear,120,2013-09-24 09:58:00
3:03 AM,46.4,46.4,100,29.96,1.0,ESE,1.2,-,N/A,,Clear,110,2013-09-24 10:03:00
3:08 AM,46.4,46.4,100,29.96,0.8,Calm,Calm,-,N/A,,Clear,0,2013-09-24 10:08:00
3:13 AM,46.4,46.4,100,29.96,0.8,Calm,Calm,-,N/A,,Clear,0,2013-09-24 10:13:00
3:18 AM,46.4,46.4,100,29.96,0.8,East,1.2,-,N/A,,Clear,90,2013-09-24 10:18:00
3:23 AM,46.4,46.4,100,29.96,0.8,Calm,Calm,-,N/A,,Partly Cloudy,0,2013-09-24 10:23:00
3:28 AM,46.4,46.4,100,29.97,1.0,Calm,Calm,-,N/A,,Scattered Clouds,0,2013-09-24 10:28:00
3:33 AM,46.4,46.4,100,29.96,1.2,Calm,Calm,-,N/A,,Mostly Cloudy,0,2013-09-24 10:33:00
3:38 AM,48.2,46.4,93,29.97,2.5,West,1.2,-,N/A,,Mostly Cloudy,260,2013-09-24 10:38:00
3:43 AM,48.2,48.2,100,29.96,8.0,SSW,2.3,-,N/A,,Mostly Cloudy,210,2013-09-24 10:43:00
3:58 AM,47.7,47.3,99,29.96,10.0,SSE,2.3,-,N/A,,Overcast,150,2013-09-24 10:58:00
4:58 AM,45.0,44.8,99,29.96,10.0,ENE,2.3,-,N/A,,Clear,70,2013-09-24 11:58:00
5:23 AM,46.4,46.4,100,29.94,2.5,Calm,Calm,-,N/A,,Clear,0,2013-09-24 12:23:00
5:28 AM,46.4,44.6,93,29.94,1.0,Calm,Calm,-,N/A,,Clear,0,2013-09-24 12:28:00
5:33 AM,46.4,44.6,93,29.94,0.8,Calm,Calm,-,N/A,,Clear,0,2013-09-24 12:33:00
5:38 AM,46.4,44.6,93,29.94,0.8,Calm,Calm,-,N/A,,Clear,0,2013-09-24 12:38:00
5:43 AM,46.4,46.4,100,29.94,1.0,Calm,Calm,-,N/A,,Clear,0,2013-09-24 12:43:00
5:48 AM,46.4,46.4,100,29.94,1.2,Calm,Calm,-,N/A,,Clear,0,2013-09-24 12:48:00
5:53 AM,46.4,46.4,100,29.94,3.0,South,1.2,-,N/A,,Clear,180,2013-09-24 12:53:00
5:58 AM,46.2,45.9,99,29.96,2.5,Calm,Calm,-,N/A,,Clear,0,2013-09-24 12:58:00
6:03 AM,44.6,44.6,100,29.94,1.0,South,1.2,-,N/A,,Partly Cloudy,180,2013-09-24 13:03:00
6:08 AM,44.6,44.6,100,29.94,0.8,South,1.2,-,N/A,,Scattered Clouds,180,2013-09-24 13:08:00
6:18 AM,44.6,44.6,100,29.93,0.8,Calm,Calm,-,N/A,,Partly Cloudy,0,2013-09-24 13:18:00
6:23 AM,44.6,42.8,93,29.93,1.2,South,1.2,-,N/A,,Partly Cloudy,170,2013-09-24 13:23:00
6:28 AM,44.6,44.6,100,29.93,0.8,South,2.3,-,N/A,,Scattered Clouds,170,2013-09-24 13:28:00
6:33 AM,42.8,42.8,100,29.93,0.5,South,3.5,-,N/A,Fog,Fog,170,2013-09-24 13:33:00
6:38 AM,42.8,42.8,100,29.93,0.5,South,3.5,-,N/A,Fog,Fog,170,2013-09-24 13:38:00
6:43 AM,42.8,42.8,100,29.93,0.5,South,2.3,-,N/A,Fog,Fog,170,2013-09-24 13:43:00
6:48 AM,42.8,42.8,100,29.93,0.5,South,3.5,-,N/A,Fog,Fog,180,2013-09-24 13:48:00
6:53 AM,42.8,41.0,93,29.93,0.2,SSE,3.5,-,N/A,Fog,Fog,160,2013-09-24 13:53:00
6:58 AM,41.5,41.2,99,29.95,0.2,SSE,3.5,-,N/A,Fog,Fog,150,2013-09-24 13:58:00
7:03 AM,42.8,41.0,93,29.93,0.2,SSE,2.3,-,N/A,Fog,Fog,160,2013-09-24 14:03:00
7:18 AM,42.8,42.8,100,29.93,0.5,South,2.3,-,N/A,Fog,Fog,180,2013-09-24 14:18:00
7:23 AM,42.8,42.8,100,29.93,0.8,South,2.3,-,N/A,,Clear,170,2013-09-24 14:23:00
7:28 AM,42.8,42.8,100,29.93,0.8,South,2.3,-,N/A,,Clear,170,2013-09-24 14:28:00
7:33 AM,42.8,42.8,100,29.93,0.5,South,3.5,-,N/A,Fog,Fog,170,2013-09-24 14:33:00
7:38 AM,42.8,42.8,100,29.93,0.8,South,4.6,-,N/A,,Clear,180,2013-09-24 14:38:00
7:43 AM,42.8,42.8,100,29.92,1.5,South,3.5,-,N/A,,Clear,180,2013-09-24 14:43:00
7:48 AM,44.6,44.6,100,29.92,9.0,South,4.6,-,N/A,,Clear,180,2013-09-24 14:48:00
7:58 AM,45.7,45.5,99,29.94,10.0,South,2.3,-,N/A,,Clear,190,2013-09-24 14:58:00
8:58 AM,49.6,49.5,99,29.95,10.0,SW,1.2,-,N/A,,Partly Cloudy,230,2013-09-24 15:58:00
9:58 AM,53.1,48.7,85,29.94,10.0,Variable,3.5,-,N/A,,Clear,0,2013-09-24 16:58:00
10:58 AM,56.7,50.0,78,29.94,10.0,South,4.6,-,N/A,,Partly Cloudy,180,2013-09-24 17:58:00
11:58 AM,58.1,48.7,71,29.91,10.0,SSW,6.9,-,0.01,,Partly Cloudy,200,2013-09-24 18:58:00
12:50 PM,57.2,48.2,72,29.89,10.0,SSW,3.5,-,N/A,Rain,Light Rain,210,2013-09-24 19:50:00
12:58 PM,57.7,48.0,70,29.91,5.0,West,8.1,-,0.01,Rain,Light Rain,280,2013-09-24 19:58:00
1:08 PM,55.4,50.0,82,29.89,10.0,NW,6.9,-,N/A,Rain,Light Rain,310,2013-09-24 20:08:00
1:14 PM,57.2,50.0,77,29.88,10.0,North,6.9,-,N/A,,Mostly Cloudy,10,2013-09-24 20:14:00
1:39 PM,59.0,50.0,72,29.88,10.0,SE,3.5,-,N/A,,Overcast,140,2013-09-24 20:39:00
1:44 PM,59.0,48.2,67,29.87,10.0,Variable,3.5,-,N/A,,Overcast,0,2013-09-24 20:44:00
1:58 PM,58.8,48.9,70,29.88,10.0,Variable,2.3,-,0.00,,Overcast,0,2013-09-24 20:58:00
2:02 PM,59.0,48.2,67,29.87,10.0,Variable,1.2,-,N/A,Rain,Light Rain,0,2013-09-24 21:02:00
2:22 PM,57.2,50.0,77,29.87,7.0,NNW,8.1,-,N/A,Rain,Light Rain,340,2013-09-24 21:22:00
2:27 PM,57.2,51.8,82,29.86,9.0,North,6.9,-,N/A,Rain,Light Rain,360,2013-09-24 21:27:00
2:44 PM,59.0,51.8,77,29.86,10.0,North,6.9,-,N/A,,Overcast,360,2013-09-24 21:44:00
2:58 PM,57.6,50.5,77,29.88,10.0,NNE,5.8,-,0.02,,Overcast,20,2013-09-24 21:58:00
3:10 PM,57.2,50.0,77,29.86,9.0,NE,3.5,-,N/A,Rain-Thunderstorm,Light Thunderstorms and Rain,40,2013-09-24 22:10:00
3:11 PM,57.2,50.0,77,29.86,7.0,NE,3.5,-,N/A,Rain-Thunderstorm,Light Thunderstorms and Rain,50,2013-09-24 22:11:00
3:25 PM,55.4,51.8,88,29.87,4.0,West,15.0,20.7,N/A,Rain,Light Rain,270,2013-09-24 22:25:00
3:30 PM,53.6,50.0,88,29.87,1.0,West,21.9,28.8,N/A,Rain,Heavy Rain,270,2013-09-24 22:30:00
3:35 PM,51.8,48.2,88,29.87,0.8,WNW,12.7,28.8,N/A,Rain,Heavy Rain,300,2013-09-24 22:35:00
3:40 PM,51.8,50.0,94,29.87,1.2,West,10.4,-,N/A,Rain,Heavy Rain,280,2013-09-24 22:40:00
3:45 PM,51.8,50.0,94,29.87,2.0,WNW,6.9,-,N/A,Rain,Heavy Rain,300,2013-09-24 22:45:00
3:50 PM,51.8,50.0,94,29.88,2.5,WNW,5.8,-,N/A,Rain,Rain,300,2013-09-24 22:50:00
3:55 PM,51.8,50.0,94,29.87,5.0,WNW,4.6,-,N/A,Rain,Light Rain,300,2013-09-24 22:55:00
3:58 PM,52.2,50.7,95,29.90,7.0,West,3.5,-,0.27,Rain,Light Rain,280,2013-09-24 22:58:00
4:58 PM,53.2,50.4,90,29.88,10.0,South,3.5,-,0.03,Rain,Light Rain,170,2013-09-24 23:58:00
4:59 PM,53.6,50.0,88,29.87,10.0,South,3.5,-,N/A,,Overcast,170,2013-09-24 23:59:00
5:29 PM,53.6,51.8,94,29.87,10.0,South,5.8,-,N/A,,Light Drizzle,170,2013-09-25 00:29:00
5:56 PM,51.8,51.8,100,29.87,10.0,South,9.2,-,N/A,,Mostly Cloudy,170,2013-09-25 00:56:00
5:58 PM,51.8,51.8,100,29.89,10.0,SSE,9.2,-,0.00,,Mostly Cloudy,160,2013-09-25 00:58:00
6:58 PM,51.1,50.4,97,29.89,10.0,South,5.8,-,N/A,,Mostly Cloudy,170,2013-09-25 01:58:00
7:58 PM,50.4,50.0,99,29.89,10.0,SSE,4.6,-,N/A,,Overcast,160,2013-09-25 02:58:00
8:58 PM,50.0,49.5,98,29.88,10.0,SSE,1.2,-,N/A,,Overcast,160,2013-09-25 03:58:00
9:58 PM,49.5,49.3,99,29.88,10.0,ESE,2.3,-,N/A,,Overcast,110,2013-09-25 04:58:00
10:48 PM,50.0,50.0,100,29.87,10.0,East,1.2,-,N/A,,Overcast,100,2013-09-25 05:48:00
10:58 PM,50.0,49.8,99,29.88,10.0,Calm,Calm,-,N/A,,Overcast,0,2013-09-25 05:58:00
11:03 PM,50.0,50.0,100,29.87,10.0,Calm,Calm,-,N/A,,Overcast,0,2013-09-25 06:03:00
11:48 PM,50.0,50.0,100,29.87,10.0,Calm,Calm,-,N/A,,Overcast,0,2013-09-25 06:48:00
11:58 PM,50.4,50.2,99,29.88,10.0,Calm,Calm,-,N/A,,Overcast,0,2013-09-25 06:58:00